TimeAKDT,TemperatureF,Dew PointF,Humidity,Sea Level PressureIn,VisibilityMPH,Wind Direction,Wind SpeedMPH,Gust SpeedMPH,PrecipitationIn,Events,Conditions,WindDirDegrees,DateUTC
12:53 AM,28.0,15.1,58,29.88,10.0,NE,10.4,19.6,N/A,,Mostly Cloudy,50,2013-10-25 08:53:00
1:53 AM,28.0,15.1,58,29.88,10.0,NE,11.5,17.3,N/A,,Overcast,40,2013-10-25 09:53:00
2:53 AM,28.9,16.0,58,29.89,10.0,NE,10.4,-,N/A,,Overcast,50,2013-10-25 10:53:00
3:53 AM,28.4,17.6,64,29.89,10.0,NE,9.2,-,N/A,,Overcast,50,2013-10-25 11:53:00
4:53 AM,28.0,18.0,66,29.89,10.0,NE,10.4,16.1,N/A,,Overcast,50,2013-10-25 12:53:00
5:53 AM,28.0,18.0,66,29.91,10.0,NE,11.5,16.1,N/A,,Overcast,40,2013-10-25 13:53:00
6:53 AM,28.9,18.0,64,29.91,10.0,NE,8.1,-,N/A,,Overcast,40,2013-10-25 14:53:00
7:53 AM,28.0,18.0,66,29.93,10.0,NE,5.8,-,N/A,,Overcast,50,2013-10-25 15:53:00
8:53 AM,28.0,19.0,69,29.94,10.0,NE,5.8,-,N/A,,Overcast,40,2013-10-25 16:53:00
9:53 AM,28.0,18.0,66,29.96,10.0,ENE,5.8,-,N/A,,Overcast,60,2013-10-25 17:53:00
10:53 AM,28.9,19.0,67,29.96,10.0,NE,6.9,-,N/A,,Overcast,50,2013-10-25 18:53:00
11:53 AM,28.9,19.9,69,29.99,10.0,North,4.6,-,N/A,,Overcast,10,2013-10-25 19:53:00
12:53 PM,30.0,19.9,66,30.01,10.0,Calm,Calm,-,N/A,,Overcast,0,2013-10-25 20:53:00
1:53 PM,30.9,21.0,67,30.03,10.0,NNE,3.5,-,N/A,,Overcast,20,2013-10-25 21:53:00
2:53 PM,30.9,19.9,64,30.03,10.0,NNE,5.8,-,N/A,,Overcast,30,2013-10-25 22:53:00
3:53 PM,30.9,21.0,67,30.04,10.0,NNE,4.6,-,N/A,,Overcast,30,2013-10-25 23:53:00
4:53 PM,30.9,19.9,64,30.05,10.0,NNE,5.8,-,N/A,,Overcast,30,2013-10-26 00:53:00
5:53 PM,28.9,21.0,72,30.06,10.0,Calm,Calm,-,N/A,,Mostly Cloudy,0,2013-10-26 01:53:00
6:53 PM,28.9,21.0,72,30.08,10.0,NNW,3.5,-,N/A,,Overcast,340,2013-10-26 02:53:00
7:53 PM,28.0,21.9,78,30.11,10.0,Calm,Calm,-,N/A,,Overcast,0,2013-10-26 03:53:00
8:53 PM,27.0,21.9,81,30.12,10.0,Calm,Calm,-,N/A,,Mostly Cloudy,0,2013-10-26 04:53:00
9:53 PM,24.1,19.9,84,30.14,10.0,WSW,3.5,-,N/A,,Partly Cloudy,250,2013-10-26 05:53:00
10:53 PM,24.1,19.9,84,30.16,10.0,Calm,Calm,-,N/A,,Mostly Cloudy,0,2013-10-26 06:53:00
11:53 PM,19.9,17.1,89,30.18,10.0,Calm,Calm,-,N/A,,Scattered Clouds,0,2013-10-26 07:53:00